contact:dominique.lefevre@mio.osupytheas.fr, maurice.libes@osupytheas.fr, didier.mallarino@osupytheas.fr
Project:EMSO http://www.emso-fr.org/EMSO-France
Depth: 2436.0 m
Title:EMSO Ligure Ouest : Data MII capteur MICROCAT
DateTime_Computer,Latitude,Longitude,Temperature,Conductivity,Pressure,DateTime_Instrument
DateTime_Computer,Latitude,Longitude,degC,S m-1,dbar,DateTime_Instrument
2020-03-08T00:00:21Z,42.805,6.029,13.2980,4.60028,2469.96,2020-3-08T02:00:58Z
2020-03-08T00:03:24Z,42.805,6.029,13.2985,4.60014,2469.937,2020-3-08T02:04:01Z
2020-03-08T00:06:27Z,42.805,6.029,13.2990,4.60017,2469.937,2020-3-08T02:07:04Z
2020-03-08T00:09:31Z,42.805,6.029,13.2982,4.60006,2469.923,2020-3-08T02:10:07Z
2020-03-08T00:12:34Z,42.805,6.029,13.2996,4.60022,2469.923,2020-3-08T02:13:10Z
2020-03-08T00:15:37Z,42.805,6.029,13.2989,4.60009,2469.96,2020-3-08T02:16:13Z
2020-03-08T00:18:40Z,42.805,6.029,13.2991,4.60001,2469.923,2020-3-08T02:19:17Z
2020-03-08T00:21:43Z,42.805,6.029,13.2996,4.60023,2469.947,2020-3-08T02:22:20Z
2020-03-08T00:24:46Z,42.805,6.029,13.2993,4.60023,2469.937,2020-3-08T02:25:23Z
2020-03-08T00:27:50Z,42.805,6.029,13.3000,4.60021,2469.9,2020-3-08T02:28:26Z
2020-03-08T00:30:53Z,42.805,6.029,13.2986,4.59999,2469.937,2020-3-08T02:31:29Z
2020-03-08T00:33:56Z,42.805,6.029,13.2981,4.60005,2469.947,2020-3-08T02:34:33Z
2020-03-08T00:36:59Z,42.805,6.029,13.2988,4.60011,2469.923,2020-3-08T02:37:36Z
2020-03-08T00:40:02Z,42.805,6.029,13.2983,4.60013,2469.9,2020-3-08T02:40:39Z
2020-03-08T00:43:06Z,42.805,6.029,13.2976,4.60017,2469.9,2020-3-08T02:43:42Z
2020-03-08T00:46:09Z,42.805,6.029,13.2976,4.60003,2469.937,2020-3-08T02:46:45Z
2020-03-08T00:49:12Z,42.805,6.029,13.2979,4.60010,2469.947,2020-3-08T02:49:49Z
2020-03-08T00:52:15Z,42.805,6.029,13.2983,4.60000,2469.96,2020-3-08T02:52:52Z
2020-03-08T00:55:18Z,42.805,6.029,13.2982,4.60019,2469.937,2020-3-08T02:55:55Z
2020-03-08T00:58:22Z,42.805,6.029,13.2979,4.60006,2469.923,2020-3-08T02:58:58Z
2020-03-08T01:01:25Z,42.805,6.029,13.2987,4.60002,2469.914,2020-3-08T03:02:01Z
2020-03-08T01:04:28Z,42.805,6.029,13.2990,4.60031,2469.923,2020-3-08T03:05:04Z
2020-03-08T01:07:31Z,42.805,6.029,13.2996,4.60012,2469.9,2020-3-08T03:08:08Z
2020-03-08T01:10:34Z,42.805,6.029,13.2983,4.60011,2469.923,2020-3-08T03:11:11Z
2020-03-08T01:13:37Z,42.805,6.029,13.2989,4.60020,2469.947,2020-3-08T03:14:14Z
2020-03-08T01:16:41Z,42.805,6.029,13.2986,4.60004,2469.947,2020-3-08T03:17:17Z
2020-03-08T01:19:44Z,42.805,6.029,13.2976,4.60052,2469.937,2020-3-08T03:20:20Z
2020-03-08T01:22:47Z,42.805,6.029,13.2982,4.60025,2469.984,2020-3-08T03:23:24Z
2020-03-08T01:25:50Z,42.805,6.029,13.2985,4.60007,2469.923,2020-3-08T03:26:27Z
2020-03-08T01:28:53Z,42.805,6.029,13.2990,4.60028,2469.96,2020-3-08T03:29:30Z
2020-03-08T01:31:57Z,42.805,6.029,13.2996,4.60018,2469.96,2020-3-08T03:32:33Z
2020-03-08T01:35:00Z,42.805,6.029,13.2995,4.60029,2469.96,2020-3-08T03:35:36Z
2020-03-08T01:38:03Z,42.805,6.029,13.2982,4.60011,2469.937,2020-3-08T03:38:40Z
2020-03-08T01:41:06Z,42.805,6.029,13.2978,4.59996,2469.923,2020-3-08T03:41:43Z
2020-03-08T01:44:09Z,42.805,6.029,13.2980,4.60017,2469.984,2020-3-08T03:44:46Z
2020-03-08T01:47:13Z,42.805,6.029,13.2983,4.60005,2469.97,2020-3-08T03:47:49Z
2020-03-08T01:50:16Z,42.805,6.029,13.2977,4.59998,2469.923,2020-3-08T03:50:53Z
2020-03-08T01:53:19Z,42.805,6.029,13.2976,4.59996,2469.933,2020-3-08T03:53:56Z
2020-03-08T01:56:23Z,42.805,6.029,13.2985,4.60007,2469.947,2020-3-08T03:56:59Z
2020-03-08T01:59:26Z,42.805,6.029,13.2985,4.60019,2469.96,2020-3-08T04:00:02Z
2020-03-08T02:02:29Z,42.805,6.029,13.2977,4.60006,2469.96,2020-3-08T04:03:06Z
2020-03-08T02:05:32Z,42.805,6.029,13.2976,4.59993,2469.923,2020-3-08T04:06:09Z
2020-03-08T02:08:35Z,42.805,6.029,13.2978,4.60001,2469.947,2020-3-08T04:09:12Z
2020-03-08T02:11:38Z,42.805,6.029,13.2979,4.60009,2469.984,2020-3-08T04:12:15Z
2020-03-08T02:14:42Z,42.805,6.029,13.3003,4.60028,2469.97,2020-3-08T04:15:18Z
2020-03-08T02:17:45Z,42.805,6.029,13.3000,4.60033,2469.984,2020-3-08T04:18:21Z
2020-03-08T02:20:48Z,42.805,6.029,13.2994,4.60034,2469.96,2020-3-08T04:21:25Z
2020-03-08T02:23:51Z,42.805,6.029,13.3000,4.60044,2469.984,2020-3-08T04:24:28Z
2020-03-08T02:26:55Z,42.805,6.029,13.2998,4.60031,2469.993,2020-3-08T04:27:31Z
2020-03-08T02:29:58Z,42.805,6.029,13.2983,4.60019,2469.97,2020-3-08T04:30:34Z
2020-03-08T02:33:01Z,42.805,6.029,13.2998,4.60025,2469.993,2020-3-08T04:33:38Z
2020-03-08T02:36:04Z,42.805,6.029,13.2988,4.60035,2469.993,2020-3-08T04:36:41Z
2020-03-08T02:39:07Z,42.805,6.029,13.2989,4.60020,2470.007,2020-3-08T04:39:44Z
2020-03-08T02:42:11Z,42.805,6.029,13.2990,4.60019,2469.97,2020-3-08T04:42:47Z
2020-03-08T02:45:14Z,42.805,6.029,13.2986,4.60005,2469.993,2020-3-08T04:45:50Z
2020-03-08T02:48:17Z,42.805,6.029,13.2990,4.60024,2469.993,2020-3-08T04:48:54Z
2020-03-08T02:51:20Z,42.805,6.029,13.2998,4.60011,2469.993,2020-3-08T04:51:57Z
2020-03-08T02:54:24Z,42.805,6.029,13.2998,4.60037,2469.993,2020-3-08T04:55:00Z
2020-03-08T02:57:27Z,42.805,6.029,13.3014,4.60036,2470.053,2020-3-08T04:58:03Z
2020-03-08T03:00:30Z,42.805,6.029,13.3004,4.60057,2470.053,2020-3-08T05:01:06Z
2020-03-08T03:03:33Z,42.805,6.029,13.2993,4.60035,2469.993,2020-3-08T05:04:10Z
2020-03-08T03:06:36Z,42.805,6.029,13.2992,4.60019,2469.993,2020-3-08T05:07:13Z
2020-03-08T03:09:39Z,42.805,6.029,13.3008,4.60027,2470.053,2020-3-08T05:10:16Z
2020-03-08T03:12:43Z,42.805,6.029,13.2986,4.60028,2470.017,2020-3-08T05:13:19Z
2020-03-08T03:15:46Z,42.805,6.029,13.3011,4.60039,2470.04,2020-3-08T05:16:22Z
2020-03-08T03:18:49Z,42.805,6.029,13.2980,4.60000,2470.053,2020-3-08T05:19:26Z
2020-03-08T03:21:52Z,42.805,6.029,13.2985,4.60010,2470.007,2020-3-08T05:22:29Z
2020-03-08T03:24:55Z,42.805,6.029,13.2983,4.59999,2470.063,2020-3-08T05:25:32Z
2020-03-08T03:27:59Z,42.805,6.029,13.2980,4.60001,2470.053,2020-3-08T05:28:35Z
2020-03-08T03:31:02Z,42.805,6.029,13.2986,4.60001,2470.077,2020-3-08T05:31:38Z
2020-03-08T03:34:05Z,42.805,6.029,13.2983,4.60010,2470.077,2020-3-08T05:34:42Z
2020-03-08T03:37:08Z,42.805,6.029,13.3002,4.60031,2470.124,2020-3-08T05:37:45Z
2020-03-08T03:40:11Z,42.805,6.029,13.3020,4.60018,2470.063,2020-3-08T05:40:48Z
2020-03-08T03:43:15Z,42.805,6.029,13.3019,4.60037,2470.063,2020-3-08T05:43:51Z
2020-03-08T03:46:18Z,42.805,6.029,13.2997,4.60032,2470.063,2020-3-08T05:46:54Z
2020-03-08T03:49:21Z,42.805,6.029,13.3034,4.60019,2470.04,2020-3-08T05:49:57Z
2020-03-08T03:52:24Z,42.805,6.029,13.3013,4.60037,2470.124,2020-3-08T05:53:01Z
2020-03-08T03:55:27Z,42.805,6.029,13.3021,4.60072,2470.087,2020-3-08T05:56:04Z
2020-03-08T03:58:31Z,42.805,6.029,13.3021,4.60016,2470.11,2020-3-08T05:59:07Z
2020-03-08T04:01:34Z,42.805,6.029,13.3025,4.60048,2470.124,2020-3-08T06:02:11Z
2020-03-08T04:04:37Z,42.805,6.029,13.3023,4.60046,2470.077,2020-3-08T06:05:14Z
2020-03-08T04:07:40Z,42.805,6.029,13.3021,4.60026,2470.1,2020-3-08T06:08:17Z
2020-03-08T04:10:44Z,42.805,6.029,13.3011,4.60093,2470.1,2020-3-08T06:11:20Z
2020-03-08T04:13:47Z,42.805,6.029,13.3010,4.60053,2470.1,2020-3-08T06:14:23Z
2020-03-08T04:16:50Z,42.805,6.029,13.3019,4.60039,2470.087,2020-3-08T06:17:26Z
2020-03-08T04:19:53Z,42.805,6.029,13.3026,4.60088,2470.087,2020-3-08T06:20:30Z
2020-03-08T04:22:56Z,42.805,6.029,13.3022,4.60079,2470.133,2020-3-08T06:23:33Z
2020-03-08T04:26:00Z,42.805,6.029,13.3011,4.60082,2470.124,2020-3-08T06:26:36Z
2020-03-08T04:29:03Z,42.805,6.029,13.3029,4.60038,2470.147,2020-3-08T06:29:39Z
2020-03-08T04:32:06Z,42.805,6.029,13.3031,4.60038,2470.133,2020-3-08T06:32:43Z
2020-03-08T04:35:09Z,42.805,6.029,13.3015,4.60036,2470.147,2020-3-08T06:35:46Z
2020-03-08T04:38:12Z,42.805,6.029,13.3037,4.60079,2470.133,2020-3-08T06:38:49Z
2020-03-08T04:41:16Z,42.805,6.029,13.3044,4.60034,2470.133,2020-3-08T06:41:52Z
2020-03-08T04:44:19Z,42.805,6.029,13.2984,4.60054,2470.147,2020-3-08T06:44:55Z
2020-03-08T04:47:22Z,42.805,6.029,13.3024,4.59994,2470.147,2020-3-08T06:47:59Z
2020-03-08T04:50:25Z,42.805,6.029,13.2995,4.60035,2470.171,2020-3-08T06:51:02Z
2020-03-08T04:53:28Z,42.805,6.029,13.3005,4.60046,2470.156,2020-3-08T06:54:05Z
2020-03-08T04:56:32Z,42.805,6.029,13.3019,4.60052,2470.147,2020-3-08T06:57:08Z
2020-03-08T04:59:35Z,42.805,6.029,13.3026,4.60042,2470.124,2020-3-08T07:00:11Z
2020-03-08T05:02:38Z,42.805,6.029,13.3024,4.60016,2470.156,2020-3-08T07:03:15Z
2020-03-08T05:05:41Z,42.805,6.029,13.3002,4.60060,2470.133,2020-3-08T07:06:18Z
2020-03-08T05:08:45Z,42.805,6.029,13.3031,4.60077,2470.194,2020-3-08T07:09:21Z
2020-03-08T05:11:48Z,42.805,6.029,13.3004,4.60066,2470.156,2020-3-08T07:12:24Z
2020-03-08T05:14:51Z,42.805,6.029,13.3026,4.60087,2470.147,2020-3-08T07:15:28Z
2020-03-08T05:17:54Z,42.805,6.029,13.3026,4.60036,2470.227,2020-3-08T07:18:31Z
2020-03-08T05:20:57Z,42.805,6.029,13.3026,4.60031,2470.133,2020-3-08T07:21:34Z
2020-03-08T05:24:01Z,42.805,6.029,13.2987,4.59999,2470.171,2020-3-08T07:24:37Z
2020-03-08T05:27:04Z,42.805,6.029,13.2998,4.60011,2470.11,2020-3-08T07:27:40Z
2020-03-08T05:30:07Z,42.805,6.029,13.3006,4.59999,2470.203,2020-3-08T07:30:44Z
2020-03-08T05:33:10Z,42.805,6.029,13.2992,4.59998,2470.156,2020-3-08T07:33:47Z
2020-03-08T05:36:13Z,42.805,6.029,13.3000,4.59991,2470.18,2020-3-08T07:36:50Z
2020-03-08T05:39:17Z,42.805,6.029,13.2997,4.60001,2470.156,2020-3-08T07:39:53Z
2020-03-08T05:42:20Z,42.805,6.029,13.2992,4.60005,2470.133,2020-3-08T07:42:56Z
2020-03-08T05:45:23Z,42.805,6.029,13.3003,4.59988,2470.171,2020-3-08T07:46:00Z
2020-03-08T05:48:26Z,42.805,6.029,13.3014,4.59989,2470.156,2020-3-08T07:49:03Z
2020-03-08T05:51:29Z,42.805,6.029,13.3000,4.60011,2470.156,2020-3-08T07:52:06Z
2020-03-08T05:54:33Z,42.805,6.029,13.3001,4.60013,2470.194,2020-3-08T07:55:09Z
2020-03-08T05:57:36Z,42.805,6.029,13.3000,4.60001,2470.194,2020-3-08T07:58:12Z
2020-03-08T06:00:39Z,42.805,6.029,13.3004,4.60010,2470.18,2020-3-08T08:01:16Z
2020-03-08T06:03:42Z,42.805,6.029,13.3015,4.60021,2470.194,2020-3-08T08:04:19Z
2020-03-08T06:06:45Z,42.805,6.029,13.3005,4.60014,2470.217,2020-3-08T08:07:22Z
2020-03-08T06:09:49Z,42.805,6.029,13.3019,4.60003,2470.18,2020-3-08T08:10:25Z
2020-03-08T06:12:52Z,42.805,6.029,13.3004,4.60008,2470.171,2020-3-08T08:13:29Z
2020-03-08T06:15:55Z,42.805,6.029,13.3005,4.59996,2470.194,2020-3-08T08:16:32Z
2020-03-08T06:18:58Z,42.805,6.029,13.3000,4.60019,2470.194,2020-3-08T08:19:35Z
2020-03-08T06:22:02Z,42.805,6.029,13.3012,4.60011,2470.194,2020-3-08T08:22:38Z
2020-03-08T06:25:05Z,42.805,6.029,13.3007,4.60009,2470.18,2020-3-08T08:25:42Z
2020-03-08T06:28:08Z,42.805,6.029,13.3004,4.60004,2470.171,2020-3-08T08:28:45Z
2020-03-08T06:31:12Z,42.805,6.029,13.3000,4.60009,2470.171,2020-3-08T08:31:48Z
2020-03-08T06:34:15Z,42.805,6.029,13.3020,4.60041,2470.18,2020-3-08T08:34:51Z
2020-03-08T06:37:18Z,42.805,6.029,13.3043,4.60030,2470.194,2020-3-08T08:37:55Z
2020-03-08T06:40:21Z,42.805,6.029,13.3006,4.60003,2470.194,2020-3-08T08:40:58Z
2020-03-08T06:43:24Z,42.805,6.029,13.3016,4.60008,2470.217,2020-3-08T08:44:01Z
2020-03-08T06:46:28Z,42.805,6.029,13.3010,4.60006,2470.143,2020-3-08T08:47:04Z
2020-03-08T06:49:31Z,42.805,6.029,13.2998,4.60006,2470.203,2020-3-08T08:50:07Z
2020-03-08T06:52:34Z,42.805,6.029,13.3000,4.59997,2470.18,2020-3-08T08:53:11Z
2020-03-08T06:55:37Z,42.805,6.029,13.3002,4.60016,2470.18,2020-3-08T08:56:14Z
2020-03-08T06:58:40Z,42.805,6.029,13.3011,4.60003,2470.217,2020-3-08T08:59:17Z
2020-03-08T07:01:44Z,42.805,6.029,13.3010,4.60006,2470.18,2020-3-08T09:02:20Z
2020-03-08T07:04:47Z,42.805,6.029,13.3002,4.60010,2470.194,2020-3-08T09:05:23Z
2020-03-08T07:07:50Z,42.805,6.029,13.3006,4.60024,2470.194,2020-3-08T09:08:27Z
2020-03-08T07:10:53Z,42.805,6.029,13.2976,4.60058,2470.171,2020-3-08T09:11:30Z
2020-03-08T07:13:57Z,42.805,6.029,13.2973,4.60041,2470.203,2020-3-08T09:14:33Z
2020-03-08T07:17:00Z,42.805,6.029,13.2971,4.59992,2470.194,2020-3-08T09:17:36Z
2020-03-08T07:20:03Z,42.805,6.029,13.3019,4.59986,2470.18,2020-3-08T09:20:40Z
2020-03-08T07:23:06Z,42.805,6.029,13.3006,4.60026,2470.156,2020-3-08T09:23:43Z
2020-03-08T07:26:09Z,42.805,6.029,13.3025,4.60026,2470.171,2020-3-08T09:26:46Z
2020-03-08T07:29:13Z,42.805,6.029,13.3019,4.60005,2470.11,2020-3-08T09:29:49Z
2020-03-08T07:32:16Z,42.805,6.029,13.3006,4.60014,2470.18,2020-3-08T09:32:53Z
2020-03-08T07:35:19Z,42.805,6.029,13.2972,4.60030,2470.194,2020-3-08T09:35:56Z
2020-03-08T07:38:22Z,42.805,6.029,13.2983,4.60019,2470.18,2020-3-08T09:38:59Z
2020-03-08T07:41:26Z,42.805,6.029,13.2973,4.60023,2470.18,2020-3-08T09:42:02Z
2020-03-08T07:44:29Z,42.805,6.029,13.2971,4.60003,2470.18,2020-3-08T09:45:05Z
2020-03-08T07:47:32Z,42.805,6.029,13.2974,4.59991,2470.217,2020-3-08T09:48:09Z
2020-03-08T07:50:35Z,42.805,6.029,13.2972,4.59984,2470.171,2020-3-08T09:51:12Z
2020-03-08T07:53:38Z,42.805,6.029,13.2968,4.59986,2470.156,2020-3-08T09:54:15Z
2020-03-08T07:56:42Z,42.805,6.029,13.2968,4.59983,2470.171,2020-3-08T09:57:19Z
2020-03-08T07:59:45Z,42.805,6.029,13.2967,4.59986,2470.18,2020-3-08T10:00:22Z
2020-03-08T08:02:49Z,42.805,6.029,13.2969,4.59989,2470.194,2020-3-08T10:03:25Z
2020-03-08T08:05:52Z,42.805,6.029,13.2997,4.60003,2470.18,2020-3-08T10:06:28Z
2020-03-08T08:08:55Z,42.805,6.029,13.3017,4.60031,2470.156,2020-3-08T10:09:32Z
2020-03-08T08:11:58Z,42.805,6.029,13.3009,4.60011,2470.156,2020-3-08T10:12:35Z
2020-03-08T08:15:01Z,42.805,6.029,13.3007,4.60010,2470.194,2020-3-08T10:15:38Z
2020-03-08T08:18:05Z,42.805,6.029,13.3009,4.60004,2470.156,2020-3-08T10:18:41Z
2020-03-08T08:21:08Z,42.805,6.029,13.3022,4.60008,2470.171,2020-3-08T10:21:44Z
2020-03-08T08:24:11Z,42.805,6.029,13.2998,4.60031,2470.194,2020-3-08T10:24:48Z
2020-03-08T08:27:14Z,42.805,6.029,13.2970,4.60033,2470.18,2020-3-08T10:27:51Z
2020-03-08T08:30:18Z,42.805,6.029,13.2970,4.60036,2470.171,2020-3-08T10:30:54Z
2020-03-08T08:33:21Z,42.805,6.029,13.2969,4.60038,2470.18,2020-3-08T10:33:57Z
2020-03-08T08:36:24Z,42.805,6.029,13.2971,4.59998,2470.156,2020-3-08T10:37:01Z
2020-03-08T08:39:27Z,42.805,6.029,13.2971,4.59997,2470.171,2020-3-08T10:40:04Z
2020-03-08T08:42:30Z,42.805,6.029,13.2974,4.60000,2470.156,2020-3-08T10:43:07Z
2020-03-08T08:45:34Z,42.805,6.029,13.2968,4.60009,2470.133,2020-3-08T10:46:10Z
2020-03-08T08:48:37Z,42.805,6.029,13.2968,4.59997,2470.133,2020-3-08T10:49:13Z
2020-03-08T08:51:40Z,42.805,6.029,13.2971,4.59994,2470.171,2020-3-08T10:52:17Z
2020-03-08T08:54:43Z,42.805,6.029,13.2971,4.59995,2470.156,2020-3-08T10:55:20Z
2020-03-08T08:57:47Z,42.805,6.029,13.2966,4.60003,2470.156,2020-3-08T10:58:23Z
2020-03-08T09:00:50Z,42.805,6.029,13.2967,4.59999,2470.147,2020-3-08T11:01:26Z
2020-03-08T09:03:53Z,42.805,6.029,13.2968,4.59997,2470.156,2020-3-08T11:04:30Z
2020-03-08T09:06:56Z,42.805,6.029,13.2968,4.59990,2470.133,2020-3-08T11:07:33Z
2020-03-08T09:09:59Z,42.805,6.029,13.2970,4.59997,2470.11,2020-3-08T11:10:36Z
2020-03-08T09:13:03Z,42.805,6.029,13.2967,4.59989,2470.147,2020-3-08T11:13:39Z
2020-03-08T09:16:06Z,42.805,6.029,13.2969,4.59991,2470.133,2020-3-08T11:16:42Z
2020-03-08T09:19:09Z,42.805,6.029,13.2969,4.59995,2470.133,2020-3-08T11:19:46Z
2020-03-08T09:22:12Z,42.805,6.029,13.2968,4.59986,2470.147,2020-3-08T11:22:49Z
2020-03-08T09:25:15Z,42.805,6.029,13.2968,4.59986,2470.11,2020-3-08T11:25:52Z
2020-03-08T09:28:19Z,42.805,6.029,13.2965,4.59988,2470.1,2020-3-08T11:28:55Z
2020-03-08T09:31:22Z,42.805,6.029,13.2970,4.59995,2470.124,2020-3-08T11:31:59Z
2020-03-08T09:34:25Z,42.805,6.029,13.2967,4.59989,2470.11,2020-3-08T11:35:02Z
2020-03-08T09:37:28Z,42.805,6.029,13.2971,4.59986,2470.147,2020-3-08T11:38:05Z
2020-03-08T09:40:32Z,42.805,6.029,13.2971,4.59995,2470.1,2020-3-08T11:41:08Z
2020-03-08T09:43:35Z,42.805,6.029,13.2971,4.59993,2470.133,2020-3-08T11:44:12Z
2020-03-08T09:46:38Z,42.805,6.029,13.2972,4.59995,2470.124,2020-3-08T11:47:15Z
2020-03-08T09:49:41Z,42.805,6.029,13.2968,4.59991,2470.124,2020-3-08T11:50:18Z
2020-03-08T09:52:45Z,42.805,6.029,13.2967,4.59990,2470.087,2020-3-08T11:53:21Z
2020-03-08T09:55:48Z,42.805,6.029,13.2967,4.59985,2470.124,2020-3-08T11:56:24Z
2020-03-08T09:58:51Z,42.805,6.029,13.2968,4.59989,2470.077,2020-3-08T11:59:28Z
2020-03-08T10:01:54Z,42.805,6.029,13.2969,4.59988,2470.1,2020-3-08T12:02:31Z
2020-03-08T10:04:57Z,42.805,6.029,13.2969,4.59984,2470.063,2020-3-08T12:05:34Z
2020-03-08T10:08:01Z,42.805,6.029,13.2968,4.59978,2470.087,2020-3-08T12:08:37Z
2020-03-08T10:11:04Z,42.805,6.029,13.2968,4.59980,2470.063,2020-3-08T12:11:40Z
2020-03-08T10:14:07Z,42.805,6.029,13.2971,4.59975,2470.063,2020-3-08T12:14:44Z
2020-03-08T10:17:10Z,42.805,6.029,13.2968,4.59996,2470.1,2020-3-08T12:17:47Z
2020-03-08T10:20:13Z,42.805,6.029,13.2967,4.59995,2470.04,2020-3-08T12:20:50Z
2020-03-08T10:23:17Z,42.805,6.029,13.2972,4.59986,2470.063,2020-3-08T12:23:53Z
2020-03-08T10:26:20Z,42.805,6.029,13.2968,4.59981,2470.077,2020-3-08T12:26:56Z
2020-03-08T10:29:23Z,42.805,6.029,13.2966,4.59984,2470.133,2020-3-08T12:30:00Z
2020-03-08T10:32:26Z,42.805,6.029,13.2972,4.59981,2470.087,2020-3-08T12:33:03Z
2020-03-08T10:35:30Z,42.805,6.029,13.2972,4.59980,2470.063,2020-3-08T12:36:06Z
2020-03-08T10:38:33Z,42.805,6.029,13.2971,4.59976,2470.077,2020-3-08T12:39:09Z
2020-03-08T10:41:36Z,42.805,6.029,13.2971,4.59981,2470.04,2020-3-08T12:42:13Z
2020-03-08T10:44:39Z,42.805,6.029,13.2971,4.59976,2470.077,2020-3-08T12:45:16Z
2020-03-08T10:47:42Z,42.805,6.029,13.2972,4.59983,2470.04,2020-3-08T12:48:19Z
2020-03-08T10:50:46Z,42.805,6.029,13.2967,4.59986,2470.03,2020-3-08T12:51:22Z
2020-03-08T10:53:49Z,42.805,6.029,13.2971,4.59983,2470.077,2020-3-08T12:54:26Z
2020-03-08T10:56:52Z,42.805,6.029,13.2970,4.59981,2470.03,2020-3-08T12:57:29Z
2020-03-08T10:59:55Z,42.805,6.029,13.2972,4.59973,2470.063,2020-3-08T13:00:32Z
2020-03-08T11:02:59Z,42.805,6.029,13.2971,4.59976,2470.017,2020-3-08T13:03:35Z
2020-03-08T11:06:02Z,42.805,6.029,13.2967,4.59973,2470.063,2020-3-08T13:06:38Z
2020-03-08T11:09:05Z,42.805,6.029,13.2966,4.59978,2470.04,2020-3-08T13:09:42Z
2020-03-08T11:12:08Z,42.805,6.029,13.2968,4.59975,2470.077,2020-3-08T13:12:45Z
2020-03-08T11:15:12Z,42.805,6.029,13.2967,4.59973,2470.063,2020-3-08T13:15:48Z
2020-03-08T11:18:15Z,42.805,6.029,13.2967,4.59974,2470.017,2020-3-08T13:18:51Z
2020-03-08T11:21:18Z,42.805,6.029,13.2969,4.59973,2470.053,2020-3-08T13:21:55Z
2020-03-08T11:24:21Z,42.805,6.029,13.2964,4.59971,2470.053,2020-3-08T13:24:58Z
2020-03-08T11:27:24Z,42.805,6.029,13.2968,4.59973,2470.04,2020-3-08T13:28:01Z
2020-03-08T11:30:28Z,42.805,6.029,13.2968,4.59973,2470.017,2020-3-08T13:31:04Z
2020-03-08T11:33:31Z,42.805,6.029,13.2969,4.59977,2470.04,2020-3-08T13:34:08Z
2020-03-08T11:36:34Z,42.805,6.029,13.2973,4.59974,2470.017,2020-3-08T13:37:11Z
2020-03-08T11:39:38Z,42.805,6.029,13.2968,4.59973,2469.993,2020-3-08T13:40:14Z
2020-03-08T11:42:41Z,42.805,6.029,13.2968,4.59973,2470.007,2020-3-08T13:43:17Z
2020-03-08T11:45:44Z,42.805,6.029,13.2971,4.59976,2470.017,2020-3-08T13:46:21Z
2020-03-08T11:48:47Z,42.805,6.029,13.2967,4.59976,2469.984,2020-3-08T13:49:24Z
2020-03-08T11:51:50Z,42.805,6.029,13.2973,4.59978,2470.007,2020-3-08T13:52:27Z
2020-03-08T11:54:54Z,42.805,6.029,13.2971,4.59986,2470.007,2020-3-08T13:55:30Z
2020-03-08T11:57:57Z,42.805,6.029,13.2971,4.59996,2470.017,2020-3-08T13:58:33Z
2020-03-08T12:01:00Z,42.805,6.029,13.2967,4.59976,2469.993,2020-3-08T14:01:37Z
2020-03-08T12:04:03Z,42.805,6.029,13.2967,4.59983,2470.03,2020-3-08T14:04:40Z
2020-03-08T12:07:06Z,42.805,6.029,13.2968,4.59971,2469.97,2020-3-08T14:07:43Z
2020-03-08T12:10:10Z,42.805,6.029,13.2971,4.59973,2470.017,2020-3-08T14:10:46Z
2020-03-08T12:13:13Z,42.805,6.029,13.2970,4.59976,2469.947,2020-3-08T14:13:50Z
2020-03-08T12:16:16Z,42.805,6.029,13.2970,4.59973,2469.947,2020-3-08T14:16:53Z
2020-03-08T12:19:19Z,42.805,6.029,13.2971,4.59975,2469.97,2020-3-08T14:19:56Z
2020-03-08T12:22:23Z,42.805,6.029,13.2971,4.59972,2469.984,2020-3-08T14:22:59Z
2020-03-08T12:25:26Z,42.805,6.029,13.2970,4.59981,2469.947,2020-3-08T14:26:03Z
2020-03-08T12:28:29Z,42.805,6.029,13.2971,4.59976,2469.947,2020-3-08T14:29:06Z
2020-03-08T12:31:32Z,42.805,6.029,13.2970,4.59982,2469.947,2020-3-08T14:32:09Z
2020-03-08T12:34:36Z,42.805,6.029,13.2974,4.59976,2469.947,2020-3-08T14:35:12Z
2020-03-08T12:37:39Z,42.805,6.029,13.2968,4.59976,2469.96,2020-3-08T14:38:16Z
2020-03-08T12:40:42Z,42.805,6.029,13.2968,4.59978,2469.97,2020-3-08T14:41:19Z
2020-03-08T12:43:45Z,42.805,6.029,13.2970,4.59974,2469.97,2020-3-08T14:44:22Z
2020-03-08T12:46:49Z,42.805,6.029,13.2969,4.59973,2469.984,2020-3-08T14:47:25Z
2020-03-08T12:49:52Z,42.805,6.029,13.2974,4.59972,2469.993,2020-3-08T14:50:28Z
2020-03-08T12:52:55Z,42.805,6.029,13.2971,4.59983,2469.97,2020-3-08T14:53:32Z
2020-03-08T12:55:58Z,42.805,6.029,13.2966,4.59973,2469.923,2020-3-08T14:56:35Z
2020-03-08T12:59:01Z,42.805,6.029,13.2966,4.59975,2469.923,2020-3-08T14:59:38Z
2020-03-08T13:02:05Z,42.805,6.029,13.2973,4.59973,2469.96,2020-3-08T15:02:41Z
2020-03-08T13:05:08Z,42.805,6.029,13.2974,4.59983,2469.947,2020-3-08T15:05:45Z
2020-03-08T13:08:11Z,42.805,6.029,13.2978,4.59975,2469.923,2020-3-08T15:08:48Z
2020-03-08T13:11:14Z,42.805,6.029,13.2971,4.59976,2469.96,2020-3-08T15:11:51Z
2020-03-08T13:14:18Z,42.805,6.029,13.2973,4.59971,2469.947,2020-3-08T15:14:54Z
2020-03-08T13:17:21Z,42.805,6.029,13.2973,4.59970,2469.984,2020-3-08T15:17:58Z
2020-03-08T13:20:24Z,42.805,6.029,13.2969,4.59974,2469.947,2020-3-08T15:21:01Z
2020-03-08T13:23:27Z,42.805,6.029,13.2967,4.59975,2469.937,2020-3-08T15:24:04Z
2020-03-08T13:26:31Z,42.805,6.029,13.2968,4.59972,2469.97,2020-3-08T15:27:07Z
2020-03-08T13:29:34Z,42.805,6.029,13.2971,4.59975,2469.97,2020-3-08T15:30:11Z
2020-03-08T13:32:37Z,42.805,6.029,13.2971,4.59978,2469.937,2020-3-08T15:33:14Z
2020-03-08T13:35:40Z,42.805,6.029,13.2967,4.59971,2469.923,2020-3-08T15:36:17Z
2020-03-08T13:38:44Z,42.805,6.029,13.2972,4.59974,2469.96,2020-3-08T15:39:20Z
2020-03-08T13:41:47Z,42.805,6.029,13.2973,4.59973,2469.937,2020-3-08T15:42:23Z
2020-03-08T13:44:50Z,42.805,6.029,13.2977,4.59978,2469.914,2020-3-08T15:45:27Z
2020-03-08T13:47:53Z,42.805,6.029,13.2970,4.59994,2469.947,2020-3-08T15:48:30Z
2020-03-08T13:50:57Z,42.805,6.029,13.2969,4.59991,2469.947,2020-3-08T15:51:33Z
2020-03-08T13:54:00Z,42.805,6.029,13.2971,4.59976,2469.96,2020-3-08T15:54:36Z
2020-03-08T13:57:03Z,42.805,6.029,13.2975,4.59978,2469.947,2020-3-08T15:57:40Z
2020-03-08T14:00:06Z,42.805,6.029,13.2975,4.59984,2469.909,2020-3-08T16:00:43Z
2020-03-08T14:03:09Z,42.805,6.029,13.2974,4.59983,2469.947,2020-3-08T16:03:46Z
2020-03-08T14:06:13Z,42.805,6.029,13.2977,4.59986,2469.984,2020-3-08T16:06:49Z
2020-03-08T14:09:16Z,42.805,6.029,13.2979,4.59989,2469.96,2020-3-08T16:09:53Z
2020-03-08T14:12:19Z,42.805,6.029,13.2973,4.59977,2469.96,2020-3-08T16:12:56Z
2020-03-08T14:15:22Z,42.805,6.029,13.2974,4.59978,2469.937,2020-3-08T16:15:59Z
2020-03-08T14:18:26Z,42.805,6.029,13.2986,4.59981,2469.96,2020-3-08T16:19:02Z
2020-03-08T14:21:29Z,42.805,6.029,13.2971,4.59987,2469.96,2020-3-08T16:22:05Z
2020-03-08T14:24:32Z,42.805,6.029,13.2969,4.59976,2469.993,2020-3-08T16:25:09Z
2020-03-08T14:27:35Z,42.805,6.029,13.2976,4.59978,2469.914,2020-3-08T16:28:12Z
2020-03-08T14:30:38Z,42.805,6.029,13.2976,4.59991,2469.947,2020-3-08T16:31:15Z
2020-03-08T14:33:42Z,42.805,6.029,13.2971,4.59979,2469.97,2020-3-08T16:34:18Z
2020-03-08T14:36:45Z,42.805,6.029,13.2973,4.59983,2469.97,2020-3-08T16:37:22Z
2020-03-08T14:39:48Z,42.805,6.029,13.2976,4.59985,2469.97,2020-3-08T16:40:25Z
2020-03-08T14:42:51Z,42.805,6.029,13.2976,4.59978,2469.984,2020-3-08T16:43:28Z
2020-03-08T14:45:55Z,42.805,6.029,13.2984,4.59990,2469.96,2020-3-08T16:46:31Z
2020-03-08T14:48:58Z,42.805,6.029,13.2982,4.60016,2470.007,2020-3-08T16:49:34Z
2020-03-08T14:52:01Z,42.805,6.029,13.2983,4.59996,2469.947,2020-3-08T16:52:38Z
2020-03-08T14:55:04Z,42.805,6.029,13.2985,4.59997,2469.97,2020-3-08T16:55:41Z
2020-03-08T14:58:07Z,42.805,6.029,13.2986,4.59990,2469.947,2020-3-08T16:58:44Z
2020-03-08T15:01:11Z,42.805,6.029,13.2987,4.59999,2469.97,2020-3-08T17:01:47Z
2020-03-08T15:04:14Z,42.805,6.029,13.2987,4.59990,2469.993,2020-3-08T17:04:51Z
2020-03-08T15:07:17Z,42.805,6.029,13.2987,4.59997,2470.03,2020-3-08T17:07:54Z
2020-03-08T15:10:20Z,42.805,6.029,13.2984,4.59982,2470.007,2020-3-08T17:10:57Z
2020-03-08T15:13:23Z,42.805,6.029,13.2982,4.59986,2469.984,2020-3-08T17:14:00Z